Year,Month,Day,Hour,Minute,Value (Times are PST for temperature in C)
2021,06,02,00,00,14.80
2021,06,02,00,01,14.70
2021,06,02,00,02,14.70
2021,06,02,00,03,14.60
2021,06,02,00,04,14.60
2021,06,02,00,05,14.50
2021,06,02,00,06,14.50
2021,06,02,00,07,14.50
2021,06,02,00,08,14.40
2021,06,02,00,09,14.40
2021,06,02,00,10,14.40
2021,06,02,00,11,14.30
2021,06,02,00,12,14.30
2021,06,02,00,13,14.30
2021,06,02,00,14,14.30
2021,06,02,00,15,14.30
2021,06,02,00,16,14.30
2021,06,02,00,17,14.30
2021,06,02,00,18,14.30
2021,06,02,00,19,14.30
2021,06,02,00,20,14.30
2021,06,02,00,21,14.30
2021,06,02,00,22,14.30
2021,06,02,00,23,14.30
2021,06,02,00,24,14.30
2021,06,02,00,25,14.30
2021,06,02,00,26,14.30
2021,06,02,00,27,14.20
2021,06,02,00,28,14.20
2021,06,02,00,29,14.20
2021,06,02,00,30,14.30
2021,06,02,00,31,14.30
2021,06,02,00,32,14.40
2021,06,02,00,33,14.50
2021,06,02,00,34,14.50
2021,06,02,00,35,14.50
2021,06,02,00,36,14.50
2021,06,02,00,37,14.50
2021,06,02,00,38,14.40
2021,06,02,00,39,14.40
2021,06,02,00,40,14.30
2021,06,02,00,41,14.20
2021,06,02,00,42,14.10
2021,06,02,00,43,14.10
2021,06,02,00,44,14.00
2021,06,02,00,45,13.90
2021,06,02,00,46,13.90
2021,06,02,00,47,13.80
2021,06,02,00,48,13.70
2021,06,02,00,49,13.70
2021,06,02,00,50,13.70
2021,06,02,00,51,13.70
2021,06,02,00,52,13.70
2021,06,02,00,53,13.70
2021,06,02,00,54,13.70
2021,06,02,00,55,13.70
2021,06,02,00,56,13.70
2021,06,02,00,57,13.70
2021,06,02,00,58,13.60
2021,06,02,00,59,13.60
2021,06,02,01,00,13.50
2021,06,02,01,01,13.50
2021,06,02,01,02,13.50
2021,06,02,01,03,13.40
2021,06,02,01,04,13.40
2021,06,02,01,05,13.40
2021,06,02,01,06,13.40
2021,06,02,01,07,13.50
2021,06,02,01,08,13.50
2021,06,02,01,09,13.50
2021,06,02,01,10,13.60
2021,06,02,01,11,13.60
2021,06,02,01,12,13.60
2021,06,02,01,13,13.70
2021,06,02,01,14,13.70
2021,06,02,01,15,13.70
2021,06,02,01,16,13.80
2021,06,02,01,17,13.80
2021,06,02,01,18,13.80
2021,06,02,01,19,13.80
2021,06,02,01,20,13.90
2021,06,02,01,21,13.90
2021,06,02,01,22,13.90
2021,06,02,01,23,13.90
2021,06,02,01,24,13.90
2021,06,02,01,25,14.00
2021,06,02,01,26,14.00
2021,06,02,01,27,14.00
2021,06,02,01,28,14.00
2021,06,02,01,29,14.00
2021,06,02,01,30,14.00
2021,06,02,01,31,14.00
2021,06,02,01,32,14.10
2021,06,02,01,33,14.10
2021,06,02,01,34,14.10
2021,06,02,01,35,14.10
2021,06,02,01,36,14.20
2021,06,02,01,37,14.20
2021,06,02,01,38,14.20
2021,06,02,01,39,14.20
2021,06,02,01,40,14.30
2021,06,02,01,41,14.30
2021,06,02,01,42,14.30
2021,06,02,01,43,14.30
2021,06,02,01,44,14.30
2021,06,02,01,45,14.30
2021,06,02,01,46,14.40
2021,06,02,01,47,14.40
2021,06,02,01,48,14.40
2021,06,02,01,49,14.40
2021,06,02,01,50,14.40
2021,06,02,01,51,14.40
2021,06,02,01,52,14.40
2021,06,02,01,53,14.40
2021,06,02,01,54,14.40
2021,06,02,01,55,14.40
2021,06,02,01,56,14.40
2021,06,02,01,57,14.40
2021,06,02,01,58,14.40
2021,06,02,01,59,14.40
2021,06,02,02,00,14.40
2021,06,02,02,01,14.40
2021,06,02,02,02,14.30
2021,06,02,02,03,14.30
2021,06,02,02,04,14.30
2021,06,02,02,05,14.30
2021,06,02,02,06,14.20
2021,06,02,02,07,14.20
2021,06,02,02,08,14.20
2021,06,02,02,09,14.10
2021,06,02,02,10,14.10
2021,06,02,02,11,14.10
2021,06,02,02,12,14.00
2021,06,02,02,13,14.00
2021,06,02,02,14,13.90
2021,06,02,02,15,13.90
2021,06,02,02,16,13.80
2021,06,02,02,17,13.70
2021,06,02,02,18,13.70
2021,06,02,02,19,13.60
2021,06,02,02,20,13.60
2021,06,02,02,21,13.50
2021,06,02,02,22,13.50
2021,06,02,02,23,13.40
2021,06,02,02,24,13.40
2021,06,02,02,25,13.40
2021,06,02,02,26,13.40
2021,06,02,02,27,13.30
2021,06,02,02,28,13.30
2021,06,02,02,29,13.30
2021,06,02,02,30,13.20
2021,06,02,02,31,13.20
2021,06,02,02,32,13.10
2021,06,02,02,33,13.10
2021,06,02,02,34,13.10
2021,06,02,02,35,13.10
2021,06,02,02,36,13.00
2021,06,02,02,37,13.00
2021,06,02,02,38,13.00
2021,06,02,02,39,13.00
2021,06,02,02,40,12.90
2021,06,02,02,41,12.90
2021,06,02,02,42,12.90
2021,06,02,02,43,13.00
2021,06,02,02,44,13.00
2021,06,02,02,45,13.10
2021,06,02,02,46,13.10
2021,06,02,02,47,13.20
2021,06,02,02,48,13.20
2021,06,02,02,49,13.30
2021,06,02,02,50,13.30
2021,06,02,02,51,13.40
2021,06,02,02,52,13.50
2021,06,02,02,53,13.50
2021,06,02,02,54,13.60
2021,06,02,02,55,13.60
2021,06,02,02,56,13.70
2021,06,02,02,57,13.70
2021,06,02,02,58,13.80
2021,06,02,02,59,13.80
2021,06,02,03,00,13.80
2021,06,02,03,01,13.80
2021,06,02,03,02,13.80
2021,06,02,03,03,13.70
2021,06,02,03,04,13.70
2021,06,02,03,05,13.60
2021,06,02,03,06,13.50
2021,06,02,03,07,13.50
2021,06,02,03,08,13.40
2021,06,02,03,09,13.30
2021,06,02,03,10,13.30
2021,06,02,03,11,13.30
2021,06,02,03,12,13.20
2021,06,02,03,13,13.10
2021,06,02,03,14,13.10
2021,06,02,03,15,13.10
2021,06,02,03,16,13.10
2021,06,02,03,17,13.10
2021,06,02,03,18,13.10
2021,06,02,03,19,13.10
2021,06,02,03,20,13.10
2021,06,02,03,21,13.10
2021,06,02,03,22,13.10
2021,06,02,03,23,13.00
2021,06,02,03,24,13.00
2021,06,02,03,25,12.90
2021,06,02,03,26,12.90
2021,06,02,03,27,12.80
2021,06,02,03,28,12.80
2021,06,02,03,29,12.70
2021,06,02,03,30,12.70
2021,06,02,03,31,12.60
2021,06,02,03,32,12.60
2021,06,02,03,33,12.50
2021,06,02,03,34,12.40
2021,06,02,03,35,12.40
2021,06,02,03,36,12.40
2021,06,02,03,37,12.30
2021,06,02,03,38,12.30
2021,06,02,03,39,12.30
2021,06,02,03,40,12.30
2021,06,02,03,41,12.40
2021,06,02,03,42,12.40
2021,06,02,03,43,12.50
2021,06,02,03,44,12.40
2021,06,02,03,45,12.50
2021,06,02,03,46,12.50
2021,06,02,03,47,12.50
2021,06,02,03,48,12.50
2021,06,02,03,49,12.50
2021,06,02,03,50,12.50
2021,06,02,03,51,12.50
2021,06,02,03,52,12.50
2021,06,02,03,53,12.50
2021,06,02,03,54,12.50
2021,06,02,03,55,12.50
2021,06,02,03,56,12.60
2021,06,02,03,57,12.60
2021,06,02,03,58,12.60
2021,06,02,03,59,12.60
2021,06,02,04,00,12.60
2021,06,02,04,01,12.50
2021,06,02,04,02,12.50
2021,06,02,04,03,12.50
2021,06,02,04,04,12.60
2021,06,02,04,05,12.50
2021,06,02,04,06,12.50
2021,06,02,04,07,12.50
2021,06,02,04,08,12.50
2021,06,02,04,09,12.50
2021,06,02,04,10,12.50
2021,06,02,04,11,12.50
2021,06,02,04,12,12.50
2021,06,02,04,13,12.50
2021,06,02,04,14,12.50
2021,06,02,04,15,12.50
2021,06,02,04,16,12.50
2021,06,02,04,17,12.60
2021,06,02,04,18,12.60
2021,06,02,04,19,12.60
2021,06,02,04,20,12.60
2021,06,02,04,21,12.70
2021,06,02,04,22,12.70
2021,06,02,04,23,12.70
2021,06,02,04,24,12.70
2021,06,02,04,25,12.70
2021,06,02,04,26,12.70
2021,06,02,04,27,12.70
2021,06,02,04,28,12.70
2021,06,02,04,29,12.70
2021,06,02,04,30,12.70
2021,06,02,04,31,12.70
2021,06,02,04,32,12.70
2021,06,02,04,33,12.70
2021,06,02,04,34,12.80
2021,06,02,04,35,12.80
2021,06,02,04,36,12.80
2021,06,02,04,37,12.80
2021,06,02,04,38,12.80
2021,06,02,04,39,12.90
2021,06,02,04,40,12.90
2021,06,02,04,41,12.90
2021,06,02,04,42,12.90
2021,06,02,04,43,13.00
2021,06,02,04,44,13.00
2021,06,02,04,45,13.00
2021,06,02,04,46,12.90
2021,06,02,04,47,12.90
2021,06,02,04,48,12.90
2021,06,02,04,49,12.90
2021,06,02,04,50,12.90
2021,06,02,04,51,12.90
2021,06,02,04,52,12.90
2021,06,02,04,53,12.90
2021,06,02,04,54,12.90
2021,06,02,04,55,12.90
2021,06,02,04,56,12.90
2021,06,02,04,57,12.90
2021,06,02,04,58,12.90
2021,06,02,04,59,12.90
2021,06,02,05,00,12.90
2021,06,02,05,01,12.90
2021,06,02,05,02,12.90
2021,06,02,05,03,13.00
2021,06,02,05,04,13.00
2021,06,02,05,05,13.00
2021,06,02,05,06,13.00
2021,06,02,05,07,13.00
2021,06,02,05,08,13.00
2021,06,02,05,09,13.00
2021,06,02,05,10,13.00
2021,06,02,05,11,13.00
2021,06,02,05,12,12.90
2021,06,02,05,13,13.00
2021,06,02,05,14,12.90
2021,06,02,05,15,12.90
2021,06,02,05,16,12.80
2021,06,02,05,17,12.80
2021,06,02,05,18,12.80
2021,06,02,05,19,12.80
2021,06,02,05,20,12.80
2021,06,02,05,21,12.70
2021,06,02,05,22,12.70
2021,06,02,05,23,12.70
2021,06,02,05,24,12.70
2021,06,02,05,25,12.70
2021,06,02,05,26,12.70
2021,06,02,05,27,12.70
2021,06,02,05,28,12.70
2021,06,02,05,29,12.70
2021,06,02,05,30,12.70
2021,06,02,05,31,12.70
2021,06,02,05,32,12.70
2021,06,02,05,33,12.80
2021,06,02,05,34,12.80
2021,06,02,05,35,12.80
2021,06,02,05,36,12.80
2021,06,02,05,37,12.80
2021,06,02,05,38,12.90
2021,06,02,05,39,12.90
2021,06,02,05,40,13.00
2021,06,02,05,41,13.00
2021,06,02,05,42,13.10
2021,06,02,05,43,13.10
2021,06,02,05,44,13.10
2021,06,02,05,45,13.20
2021,06,02,05,46,13.20
2021,06,02,05,47,13.20
2021,06,02,05,48,13.20
2021,06,02,05,49,13.30
2021,06,02,05,50,13.30
2021,06,02,05,51,13.40
2021,06,02,05,52,13.50
2021,06,02,05,53,13.50
2021,06,02,05,54,13.60
2021,06,02,05,55,13.70
2021,06,02,05,56,13.70
2021,06,02,05,57,13.80
2021,06,02,05,58,13.90
2021,06,02,05,59,13.90
2021,06,02,06,00,14.00
2021,06,02,06,01,14.10
2021,06,02,06,02,14.10
2021,06,02,06,03,14.10
2021,06,02,06,04,14.00
2021,06,02,06,05,14.00
2021,06,02,06,06,14.00
2021,06,02,06,07,14.10
2021,06,02,06,08,14.10
2021,06,02,06,09,14.10
2021,06,02,06,10,14.20
2021,06,02,06,11,14.20
2021,06,02,06,12,14.30
2021,06,02,06,13,14.30
2021,06,02,06,14,14.30
2021,06,02,06,15,14.40
2021,06,02,06,16,14.40
2021,06,02,06,17,14.50
2021,06,02,06,18,14.60
2021,06,02,06,19,14.60
2021,06,02,06,20,14.70
2021,06,02,06,21,14.80
2021,06,02,06,22,14.80
2021,06,02,06,23,14.90
2021,06,02,06,24,14.90
2021,06,02,06,25,14.90
2021,06,02,06,26,14.90
2021,06,02,06,27,14.90
2021,06,02,06,28,14.80
2021,06,02,06,29,14.80
2021,06,02,06,30,14.70
2021,06,02,06,31,14.60
2021,06,02,06,32,14.50
2021,06,02,06,33,14.50
2021,06,02,06,34,14.50
2021,06,02,06,35,14.40
2021,06,02,06,36,14.30
2021,06,02,06,37,14.20
2021,06,02,06,38,14.10
2021,06,02,06,39,14.00
2021,06,02,06,40,13.90
2021,06,02,06,41,13.70
2021,06,02,06,42,13.60
2021,06,02,06,43,13.50
2021,06,02,06,44,13.40
2021,06,02,06,45,13.30
2021,06,02,06,46,13.40
2021,06,02,06,47,13.40
2021,06,02,06,48,13.50
2021,06,02,06,49,13.60
2021,06,02,06,50,13.60
2021,06,02,06,51,13.60
2021,06,02,06,52,13.70
2021,06,02,06,53,13.70
2021,06,02,06,54,13.60
2021,06,02,06,55,13.50
2021,06,02,06,56,13.50
2021,06,02,06,57,13.40
2021,06,02,06,58,13.30
2021,06,02,06,59,13.30
2021,06,02,07,00,13.20
2021,06,02,07,01,13.20
2021,06,02,07,02,13.30
2021,06,02,07,03,13.30
2021,06,02,07,04,13.40
2021,06,02,07,05,13.40
2021,06,02,07,06,13.50
2021,06,02,07,07,13.50
2021,06,02,07,08,13.60
2021,06,02,07,09,13.60
2021,06,02,07,10,13.70
2021,06,02,07,11,13.70
2021,06,02,07,12,13.80
2021,06,02,07,13,13.80
2021,06,02,07,14,13.90
2021,06,02,07,15,13.90
2021,06,02,07,16,14.00
2021,06,02,07,17,14.10
2021,06,02,07,18,14.20
2021,06,02,07,19,14.20
2021,06,02,07,20,14.20
2021,06,02,07,21,14.20
2021,06,02,07,22,14.20
2021,06,02,07,23,14.10
2021,06,02,07,24,14.00
2021,06,02,07,25,13.90
2021,06,02,07,26,13.90
2021,06,02,07,27,13.80
2021,06,02,07,28,13.70
2021,06,02,07,29,13.70
2021,06,02,07,30,13.60
2021,06,02,07,31,13.60
2021,06,02,07,32,13.60
2021,06,02,07,33,13.60
2021,06,02,07,34,13.50
2021,06,02,07,35,13.50
2021,06,02,07,36,13.50
2021,06,02,07,37,13.40
2021,06,02,07,38,13.40
2021,06,02,07,39,13.40
2021,06,02,07,40,13.40
2021,06,02,07,41,13.30
2021,06,02,07,42,13.30
2021,06,02,07,43,13.30
2021,06,02,07,44,13.30
2021,06,02,07,45,13.30
2021,06,02,07,46,13.30
2021,06,02,07,47,13.30
2021,06,02,07,48,13.30
2021,06,02,07,49,13.30
2021,06,02,07,50,13.30
2021,06,02,07,51,13.30
2021,06,02,07,52,13.40
2021,06,02,07,53,13.50
2021,06,02,07,54,13.60
2021,06,02,07,55,13.80
2021,06,02,07,56,13.90
2021,06,02,07,57,14.00
2021,06,02,07,58,14.20
2021,06,02,07,59,14.30
2021,06,02,08,00,14.40
2021,06,02,08,01,14.50
2021,06,02,08,02,14.60
2021,06,02,08,03,14.70
2021,06,02,08,04,14.70
2021,06,02,08,05,14.80
2021,06,02,08,06,14.80
2021,06,02,08,07,14.80
2021,06,02,08,08,14.90
2021,06,02,08,09,14.90
2021,06,02,08,10,15.00
2021,06,02,08,11,15.00
2021,06,02,08,12,15.00
2021,06,02,08,13,15.10
2021,06,02,08,14,15.10
2021,06,02,08,15,15.20
2021,06,02,08,16,15.20
2021,06,02,08,17,15.20
2021,06,02,08,18,15.30
2021,06,02,08,19,15.30
2021,06,02,08,20,15.30
2021,06,02,08,21,15.30
2021,06,02,08,22,15.30
2021,06,02,08,23,15.30
2021,06,02,08,24,15.30
2021,06,02,08,25,15.30
2021,06,02,08,26,15.20
2021,06,02,08,27,15.10
2021,06,02,08,28,14.90
2021,06,02,08,29,14.90
2021,06,02,08,30,14.80
2021,06,02,08,31,14.70
2021,06,02,08,32,14.60
2021,06,02,08,33,14.60
2021,06,02,08,34,14.50
2021,06,02,08,35,14.40
2021,06,02,08,36,14.40
2021,06,02,08,37,14.50
2021,06,02,08,38,14.60
2021,06,02,08,39,14.80
2021,06,02,08,40,14.90
2021,06,02,08,41,15.10
2021,06,02,08,42,15.30
2021,06,02,08,43,15.40
2021,06,02,08,44,15.50
2021,06,02,08,45,15.60
2021,06,02,08,46,15.70
2021,06,02,08,47,15.70
2021,06,02,08,48,15.70
2021,06,02,08,49,15.70
2021,06,02,08,50,15.70
2021,06,02,08,51,15.70
2021,06,02,08,52,15.70
2021,06,02,08,53,15.70
2021,06,02,08,54,15.80
2021,06,02,08,55,15.80
2021,06,02,08,56,15.80
2021,06,02,08,57,15.70
2021,06,02,08,58,15.70
2021,06,02,08,59,15.60
2021,06,02,09,00,15.60
2021,06,02,09,01,15.50
2021,06,02,09,02,15.40
2021,06,02,09,03,15.30
2021,06,02,09,04,15.20
2021,06,02,09,05,15.10
2021,06,02,09,06,15.10
2021,06,02,09,07,15.10
2021,06,02,09,08,15.10
2021,06,02,09,09,15.10
2021,06,02,09,10,15.10
2021,06,02,09,11,15.20
2021,06,02,09,12,15.20
2021,06,02,09,13,15.20
2021,06,02,09,14,15.20
2021,06,02,09,15,15.20
2021,06,02,09,16,15.20
2021,06,02,09,17,15.20
2021,06,02,09,18,15.20
2021,06,02,09,19,15.30
2021,06,02,09,20,15.30
2021,06,02,09,21,15.40
2021,06,02,09,22,15.40
2021,06,02,09,23,15.40
2021,06,02,09,24,15.40
2021,06,02,09,25,15.30
2021,06,02,09,26,15.10
2021,06,02,09,27,15.10
2021,06,02,09,28,15.00
2021,06,02,09,29,15.00
2021,06,02,09,30,14.90
2021,06,02,09,31,14.90
2021,06,02,09,32,15.00
2021,06,02,09,33,15.00
2021,06,02,09,34,15.10
2021,06,02,09,35,15.10
2021,06,02,09,36,15.10
2021,06,02,09,37,15.20
2021,06,02,09,38,15.20
2021,06,02,09,39,15.20
2021,06,02,09,40,15.20
2021,06,02,09,41,15.20
2021,06,02,09,42,15.30
2021,06,02,09,43,15.40
2021,06,02,09,44,15.50
2021,06,02,09,45,15.60
2021,06,02,09,46,15.60
2021,06,02,09,47,15.70
2021,06,02,09,48,15.70
2021,06,02,09,49,15.70
2021,06,02,09,50,15.70
2021,06,02,09,51,15.70
2021,06,02,09,52,15.80
2021,06,02,09,53,15.80
2021,06,02,09,54,15.80
2021,06,02,09,55,15.80
2021,06,02,09,56,15.90
2021,06,02,09,57,15.90
2021,06,02,09,58,16.00
2021,06,02,09,59,16.10
2021,06,02,10,00,16.10
2021,06,02,10,01,16.20
2021,06,02,10,02,16.20
2021,06,02,10,03,16.10
2021,06,02,10,04,16.10
2021,06,02,10,05,16.00
2021,06,02,10,06,16.10
2021,06,02,10,07,16.00
2021,06,02,10,08,16.00
2021,06,02,10,09,16.00
2021,06,02,10,10,16.00
2021,06,02,10,11,16.00
2021,06,02,10,12,16.00
2021,06,02,10,13,16.00
2021,06,02,10,14,16.00
2021,06,02,10,15,16.00
2021,06,02,10,16,15.90
2021,06,02,10,17,16.00
2021,06,02,10,18,16.10
2021,06,02,10,19,16.10
2021,06,02,10,20,16.20
2021,06,02,10,21,16.30
2021,06,02,10,22,16.30
2021,06,02,10,23,16.30
2021,06,02,10,24,16.40
2021,06,02,10,25,16.40
2021,06,02,10,26,16.40
2021,06,02,10,27,16.40
2021,06,02,10,28,16.50
2021,06,02,10,29,16.50
2021,06,02,10,30,16.60
2021,06,02,10,31,16.70
2021,06,02,10,32,16.70
2021,06,02,10,33,16.70
2021,06,02,10,34,16.70
2021,06,02,10,35,16.60
2021,06,02,10,36,16.60
2021,06,02,10,37,16.50
2021,06,02,10,38,16.40
2021,06,02,10,39,16.30
2021,06,02,10,40,16.30
2021,06,02,10,41,16.20
2021,06,02,10,42,15.90
2021,06,02,10,43,15.60
2021,06,02,10,44,15.30
2021,06,02,10,45,15.00
2021,06,02,10,46,14.70
2021,06,02,10,47,14.40
2021,06,02,10,48,14.10
2021,06,02,10,49,13.80
2021,06,02,10,50,13.70
2021,06,02,10,51,13.50
2021,06,02,10,52,13.30
2021,06,02,10,53,13.20
2021,06,02,10,54,13.00
2021,06,02,10,55,12.90
2021,06,02,10,56,12.80
2021,06,02,10,57,12.70
2021,06,02,10,58,12.60
2021,06,02,10,59,12.50
2021,06,02,11,00,12.40
2021,06,02,11,01,12.30
2021,06,02,11,02,12.30
2021,06,02,11,03,12.20
2021,06,02,11,04,12.20
2021,06,02,11,05,12.20
2021,06,02,11,06,12.20
2021,06,02,11,07,12.20
2021,06,02,11,08,12.30
2021,06,02,11,09,12.30
2021,06,02,11,10,12.30
2021,06,02,11,11,12.30
2021,06,02,11,12,12.30
2021,06,02,11,13,12.30
2021,06,02,11,14,12.30
2021,06,02,11,15,12.30
2021,06,02,11,16,12.40
2021,06,02,11,17,12.40
2021,06,02,11,18,12.40
2021,06,02,11,19,12.40
2021,06,02,11,20,12.40
2021,06,02,11,21,12.50
2021,06,02,11,22,12.50
2021,06,02,11,23,12.50
2021,06,02,11,24,12.50
2021,06,02,11,25,12.60
2021,06,02,11,26,12.60
2021,06,02,11,27,12.70
2021,06,02,11,28,12.70
2021,06,02,11,29,12.90
2021,06,02,11,30,13.20
2021,06,02,11,31,13.50
2021,06,02,11,32,13.70
2021,06,02,11,33,13.80
2021,06,02,11,34,13.90
2021,06,02,11,35,14.00
2021,06,02,11,36,14.00
2021,06,02,11,37,14.00
2021,06,02,11,38,14.00
2021,06,02,11,39,13.90
2021,06,02,11,40,13.80
2021,06,02,11,41,13.80
2021,06,02,11,42,13.70
2021,06,02,11,43,13.60
2021,06,02,11,44,13.50
2021,06,02,11,45,13.30
2021,06,02,11,46,13.20
2021,06,02,11,47,13.10
2021,06,02,11,48,13.10
2021,06,02,11,49,13.10
2021,06,02,11,50,13.00
2021,06,02,11,51,13.00
2021,06,02,11,52,13.00
2021,06,02,11,53,13.00
2021,06,02,11,54,13.00
2021,06,02,11,55,13.00
2021,06,02,11,56,12.90
2021,06,02,11,57,12.90
2021,06,02,11,58,12.90
2021,06,02,11,59,12.90
2021,06,02,12,00,13.00
2021,06,02,12,01,13.10
2021,06,02,12,02,13.20
2021,06,02,12,03,13.20
2021,06,02,12,04,13.10
2021,06,02,12,05,13.10
2021,06,02,12,06,13.10
2021,06,02,12,07,13.10
2021,06,02,12,08,13.20
2021,06,02,12,09,13.20
2021,06,02,12,10,13.20
2021,06,02,12,11,13.10
2021,06,02,12,12,13.10
2021,06,02,12,13,13.00
2021,06,02,12,14,13.00
2021,06,02,12,15,13.10
2021,06,02,12,16,13.20
2021,06,02,12,17,13.30
2021,06,02,12,18,13.50
2021,06,02,12,19,13.70
2021,06,02,12,20,13.90
2021,06,02,12,21,14.00
2021,06,02,12,22,14.00
2021,06,02,12,23,14.00
2021,06,02,12,24,13.90
2021,06,02,12,25,13.80
2021,06,02,12,26,13.70
2021,06,02,12,27,13.60
2021,06,02,12,28,13.50
2021,06,02,12,29,13.40
2021,06,02,12,30,13.20
2021,06,02,12,31,13.20
2021,06,02,12,32,13.10
2021,06,02,12,33,13.00
2021,06,02,12,34,13.00
2021,06,02,12,35,13.10
2021,06,02,12,36,13.20
2021,06,02,12,37,13.30
2021,06,02,12,38,13.40
2021,06,02,12,39,13.60
2021,06,02,12,40,13.70
2021,06,02,12,41,13.70
2021,06,02,12,42,13.70
2021,06,02,12,43,13.70
2021,06,02,12,44,13.70
2021,06,02,12,45,13.70
2021,06,02,12,46,13.70
2021,06,02,12,47,13.80
2021,06,02,12,48,13.80
2021,06,02,12,49,13.90
2021,06,02,12,50,13.90
2021,06,02,12,51,13.80
2021,06,02,12,52,13.70
2021,06,02,12,53,13.60
2021,06,02,12,54,13.50
2021,06,02,12,55,13.40
2021,06,02,12,56,13.40
2021,06,02,12,57,13.30
2021,06,02,12,58,13.20
2021,06,02,12,59,13.20
2021,06,02,13,00,13.10
2021,06,02,13,01,13.00
2021,06,02,13,02,13.00
2021,06,02,13,03,12.90
2021,06,02,13,04,12.90
2021,06,02,13,05,12.90
2021,06,02,13,06,12.90
2021,06,02,13,07,12.80
2021,06,02,13,08,12.80
2021,06,02,13,09,12.80
2021,06,02,13,10,12.80
2021,06,02,13,11,12.90
2021,06,02,13,12,13.00
2021,06,02,13,13,13.10
2021,06,02,13,14,13.20
2021,06,02,13,15,13.30
2021,06,02,13,16,13.40
2021,06,02,13,17,13.60
2021,06,02,13,18,13.80
2021,06,02,13,19,13.80
2021,06,02,13,20,13.90
2021,06,02,13,21,13.90
2021,06,02,13,22,13.90
2021,06,02,13,23,13.80
2021,06,02,13,24,13.80
2021,06,02,13,25,13.70
2021,06,02,13,26,13.70
2021,06,02,13,27,13.60
2021,06,02,13,28,13.60
2021,06,02,13,29,13.60
2021,06,02,13,30,13.60
2021,06,02,13,31,13.60
2021,06,02,13,32,13.60
2021,06,02,13,33,13.70
2021,06,02,13,34,13.70
2021,06,02,13,35,13.70
2021,06,02,13,36,13.70
2021,06,02,13,37,13.70
2021,06,02,13,38,13.70
2021,06,02,13,39,13.70
2021,06,02,13,40,13.80
2021,06,02,13,41,13.80
2021,06,02,13,42,13.80
2021,06,02,13,43,13.80
2021,06,02,13,44,13.80
2021,06,02,13,45,13.80
2021,06,02,13,46,13.80
2021,06,02,13,47,13.80
2021,06,02,13,48,13.70
2021,06,02,13,49,13.70
2021,06,02,13,50,13.70
2021,06,02,13,51,13.70
2021,06,02,13,52,13.70
2021,06,02,13,53,13.70
2021,06,02,13,54,13.70
2021,06,02,13,55,13.70
2021,06,02,13,56,13.70
2021,06,02,13,57,13.70
2021,06,02,13,58,13.60
2021,06,02,13,59,13.60
2021,06,02,14,00,13.60
2021,06,02,14,01,13.60
2021,06,02,14,02,13.60
2021,06,02,14,03,13.50
2021,06,02,14,04,13.50
2021,06,02,14,05,13.50
2021,06,02,14,06,13.50
2021,06,02,14,07,13.50
2021,06,02,14,08,13.40
2021,06,02,14,09,13.50
2021,06,02,14,10,13.40
2021,06,02,14,11,13.50
2021,06,02,14,12,13.50
2021,06,02,14,13,13.50
2021,06,02,14,14,13.60
2021,06,02,14,15,13.70
2021,06,02,14,16,13.80
2021,06,02,14,17,13.80
2021,06,02,14,18,13.80
2021,06,02,14,19,13.80
2021,06,02,14,20,13.80
2021,06,02,14,21,13.80
2021,06,02,14,22,13.80
2021,06,02,14,23,13.70
2021,06,02,14,24,13.70
2021,06,02,14,25,13.70
2021,06,02,14,26,13.70
2021,06,02,14,27,13.70
2021,06,02,14,28,13.70
2021,06,02,14,29,13.70
2021,06,02,14,30,13.80
2021,06,02,14,31,13.80
2021,06,02,14,32,13.90
2021,06,02,14,33,13.90
2021,06,02,14,34,14.00
2021,06,02,14,35,14.10
2021,06,02,14,36,14.30
2021,06,02,14,37,14.40
2021,06,02,14,38,14.60
2021,06,02,14,39,14.70
2021,06,02,14,40,14.80
2021,06,02,14,41,14.90
2021,06,02,14,42,15.00
2021,06,02,14,43,15.10
2021,06,02,14,44,15.20
2021,06,02,14,45,15.30
2021,06,02,14,46,15.30
2021,06,02,14,47,15.30
2021,06,02,14,48,15.40
2021,06,02,14,49,15.50
2021,06,02,14,50,15.50
2021,06,02,14,51,15.60
2021,06,02,14,52,15.60
2021,06,02,14,53,15.70
2021,06,02,14,54,15.70
2021,06,02,14,55,15.70
2021,06,02,14,56,15.80
2021,06,02,14,57,15.90
2021,06,02,14,58,15.90
2021,06,02,14,59,16.10
2021,06,02,15,00,16.20
2021,06,02,15,01,16.20
2021,06,02,15,02,16.20
2021,06,02,15,03,16.30
2021,06,02,15,04,16.20
2021,06,02,15,05,16.20
2021,06,02,15,06,16.20
2021,06,02,15,07,16.20
2021,06,02,15,08,16.20
2021,06,02,15,09,16.30
2021,06,02,15,10,16.30
2021,06,02,15,11,16.30
2021,06,02,15,12,16.30
2021,06,02,15,13,16.30
2021,06,02,15,14,16.40
2021,06,02,15,15,16.50
2021,06,02,15,16,16.50
2021,06,02,15,17,16.50
2021,06,02,15,18,16.60
2021,06,02,15,19,16.50
2021,06,02,15,20,16.40
2021,06,02,15,21,16.30
2021,06,02,15,22,16.20
2021,06,02,15,23,16.20
2021,06,02,15,24,16.20
2021,06,02,15,25,16.20
2021,06,02,15,26,16.20
2021,06,02,15,27,16.10
2021,06,02,15,28,16.00
2021,06,02,15,29,16.00
2021,06,02,15,30,16.00
2021,06,02,15,31,15.90
2021,06,02,15,32,15.90
2021,06,02,15,33,15.90
2021,06,02,15,34,15.90
2021,06,02,15,35,15.90
2021,06,02,15,36,16.00
2021,06,02,15,37,16.00
2021,06,02,15,38,16.00
2021,06,02,15,39,16.10
2021,06,02,15,40,16.10
2021,06,02,15,41,16.10
2021,06,02,15,42,16.10
2021,06,02,15,43,16.00
2021,06,02,15,44,15.90
2021,06,02,15,45,15.90
2021,06,02,15,46,15.90
2021,06,02,15,47,15.80
2021,06,02,15,48,15.80
2021,06,02,15,49,15.80
2021,06,02,15,50,15.80
2021,06,02,15,51,15.80
2021,06,02,15,52,15.80
2021,06,02,15,53,15.80
2021,06,02,15,54,15.90
2021,06,02,15,55,15.90
2021,06,02,15,56,15.90
2021,06,02,15,57,16.00
2021,06,02,15,58,16.00
2021,06,02,15,59,16.10
2021,06,02,16,00,16.20
2021,06,02,16,01,16.30
2021,06,02,16,02,16.30
2021,06,02,16,03,16.40
2021,06,02,16,04,16.50
2021,06,02,16,05,16.60
2021,06,02,16,06,16.70
2021,06,02,16,07,16.80
2021,06,02,16,08,16.80
2021,06,02,16,09,16.90
2021,06,02,16,10,16.90
2021,06,02,16,11,16.90
2021,06,02,16,12,17.00
2021,06,02,16,13,17.00
2021,06,02,16,14,17.10
2021,06,02,16,15,17.10
2021,06,02,16,16,17.20
2021,06,02,16,17,17.20
2021,06,02,16,18,17.20
2021,06,02,16,19,17.20
2021,06,02,16,20,17.20
2021,06,02,16,21,17.30
2021,06,02,16,22,17.30
2021,06,02,16,23,17.30
2021,06,02,16,24,17.30
2021,06,02,16,25,17.40
2021,06,02,16,26,17.40
2021,06,02,16,27,17.50
2021,06,02,16,28,17.50
2021,06,02,16,29,17.50
2021,06,02,16,30,17.60
2021,06,02,16,31,17.60
2021,06,02,16,32,17.60
2021,06,02,16,33,17.70
2021,06,02,16,34,17.70
2021,06,02,16,35,17.80
2021,06,02,16,36,17.80
2021,06,02,16,37,17.80
2021,06,02,16,38,17.80
2021,06,02,16,39,17.80
2021,06,02,16,40,17.80
2021,06,02,16,41,17.80
2021,06,02,16,42,17.90
2021,06,02,16,43,17.90
2021,06,02,16,44,18.00
2021,06,02,16,45,18.00
2021,06,02,16,46,18.10
2021,06,02,16,47,18.10
2021,06,02,16,48,18.20
2021,06,02,16,49,18.20
2021,06,02,16,50,18.20
2021,06,02,16,51,18.20
2021,06,02,16,52,18.20
2021,06,02,16,53,18.20
2021,06,02,16,54,18.20
2021,06,02,16,55,18.10
2021,06,02,16,56,18.10
2021,06,02,16,57,18.10
2021,06,02,16,58,18.00
2021,06,02,16,59,18.00
2021,06,02,17,00,18.00
2021,06,02,17,01,17.90
2021,06,02,17,02,17.90
2021,06,02,17,03,17.90
2021,06,02,17,04,17.80
2021,06,02,17,05,17.80
2021,06,02,17,06,17.80
2021,06,02,17,07,17.80
2021,06,02,17,08,17.80
2021,06,02,17,09,17.70
2021,06,02,17,10,17.80
2021,06,02,17,11,17.70
2021,06,02,17,12,17.70
2021,06,02,17,13,17.70
2021,06,02,17,14,17.80
2021,06,02,17,15,17.80
2021,06,02,17,16,17.80
2021,06,02,17,17,17.80
2021,06,02,17,18,17.80
2021,06,02,17,19,17.80